Theta_e
323 322 320 315 304 304 304 304 305 307 306 306 306 306 306 307 307 306 306 305 304 305 304 302 304 305 304 303 305 304 307 309 311 311 311 313 312 317 320 317 317 310 312 313 313 325 328 319 320 325 321 323 327 330
322 321 319 308 304 304 304 304 306 307 306 306 306 306 306 306 307 306 306 306 305 304 304 304 305 304 305 304 304 303 307 308 310 306 306 310 313 316 320 319 316 319 318 325 322 322 319 318 319 320 320 321 328 326
322 320 316 304 304 304 304 304 305 307 306 306 306 306 306 306 307 306 306 305 304 304 300 299 303 307 307 306 305 307 306 306 309 307 308 306 311 315 321 319 319 317 314 316 318 319 316 319 317 317 319 320 322 325
321 319 306 304 304 304 304 304 305 306 306 306 306 305 305 306 306 306 306 305 304 304 304 301 305 306 308 307 307 306 307 307 307 311 312 308 311 313 316 317 317 316 314 314 317 316 317 318 317 317 317 319 320 322
319 314 304 304 304 304 304 304 305 306 306 306 305 305 305 305 306 306 306 307 305 304 303 300 303 308 309 309 307 306 306 305 308 312 313 312 313 314 313 314 314 315 317 318 319 313 316 316 316 316 317 318 318 319
319 309 305 304 304 304 304 304 305 306 306 305 306 305 306 305 306 306 309 307 306 305 305 302 302 305 309 309 308 308 306 303 308 312 313 313 312 310 314 315 311 311 312 315 315 313 313 314 314 315 316 316 317 318
318 308 304 304 304 304 304 304 305 306 305 305 306 305 306 305 306 308 306 307 306 305 306 305 304 305 307 306 305 305 308 309 310 312 314 314 313 310 310 313 310 311 311 314 312 313 313 312 313 314 316 317 317 318
314 306 304 304 304 304 304 305 305 305 305 305 306 305 305 306 307 307 308 307 306 307 307 308 306 306 307 306 308 303 307 307 308 311 310 311 310 311 310 310 310 310 311 311 311 312 311 311 312 314 316 318 319 318
307 304 304 304 304 304 304 305 305 305 305 306 306 306 306 306 307 310 307 305 306 307 307 310 300 306 304 305 304 306 303 310 306 310 311 310 312 312 311 310 310 310 309 310 310 312 313 314 314 315 317 318 319 319
304 304 304 304 304 304 305 306 305 305 306 306 306 307 309 310 309 306 305 307 307 306 303 305 304 308 305 306 308 307 304 307 309 309 307 308 312 311 309 309 309 309 308 308 312 313 313 312 314 313 315 315 316 318
304 304 304 304 304 304 306 306 306 306 306 307 309 311 309 307 307 308 311 311 310 310 308 310 305 308 305 309 309 307 307 307 310 312 310 311 309 308 308 308 308 307 308 309 309 310 310 311 311 311 311 312 313 315
304 304 304 304 304 307 306 306 306 306 307 309 311 309 307 308 310 313 313 313 313 316 312 312 308 305 306 307 310 307 311 311 311 308 309 312 306 306 307 307 309 308 308 308 307 307 307 308 308 307 308 308 310 311
304 304 304 304 312 312 307 306 306 309 311 312 311 313 312 313 314 317 316 312 312 316 313 310 309 306 307 306 307 309 314 315 312 313 314 311 308 307 306 306 308 308 308 308 307 306 306 306 306 306 306 306 307 308
304 305 305 308 314 312 307 307 308 309 309 314 318 314 318 322 319 321 319 319 318 315 311 311 309 310 310 313 311 314 311 310 311 311 313 310 306 306 305 304 308 307 306 306 306 306 306 305 304 304 303 304 304 305
305 306 311 314 313 309 307 306 307 308 310 317 315 314 320 317 319 319 316 317 317 314 313 314 314 314 314 312 311 312 311 311 308 306 311 310 307 304 304 303 306 306 305 305 305 305 305 304 303 303 302 302 302 303
306 314 316 314 311 308 307 307 306 308 313 316 314 317 314 314 316 315 314 314 315 316 317 318 314 315 314 314 312 311 311 304 305 310 311 309 305 302 303 303 302 307 306 305 306 305 304 304 303 301 299 299 301 301
315 318 315 313 310 307 307 308 309 313 318 319 315 314 313 312 312 310 309 309 311 317 320 319 320 318 314 316 314 309 308 309 309 309 307 302 301 301 301 303 301 304 307 306 306 306 306 305 302 301 300 299 299 299
310 312 313 313 310 307 309 311 315 321 322 317 316 312 309 309 311 310 309 309 314 315 316 315 306 311 310 311 307 303 303 302 301 303 302 301 300 300 303 300 302 304 308 307 308 307 306 306 304 302 302 301 300 300
305 308 311 312 313 313 317 315 313 320 318 315 311 309 312 311 308 308 307 308 309 309 306 304 306 306 305 302 302 301 301 300 299 297 296 298 299 301 301 300 303 306 307 307 305 302 301 301 303 304 304 303 302 301
309 308 308 310 310 310 316 319 318 319 316 313 309 311 310 309 308 306 305 307 305 304 305 305 305 303 301 300 299 300 299 297 295 296 296 296 298 299 299 299 298 298 298 298 298 299 298 299 300 300 302 304 303 303
310 314 307 306 306 306 312 317 317 316 312 313 310 310 310 309 309 308 306 303 306 305 306 303 301 299 300 301 301 300 300 298 295 295 295 296 297 298 298 298 298 298 297 297 297 297 298 298 298 299 299 300 300 302
319 316 311 309 312 315 316 317 317 316 315 315 313 312 314 316 313 310 305 307 306 305 303 302 300 300 300 300 301 301 301 299 298 299 299 298 295 295 296 296 297 296 296 296 296 296 296 297 298 299 299 299 300 300
318 319 319 316 318 312 316 315 321 320 320 320 319 319 319 317 313 310 305 302 303 305 307 304 303 302 302 302 302 301 299 299 297 298 298 298 297 297 296 296 296 297 296 296 296 296 296 296 297 298 299 299 299 299
321 321 323 322 318 318 315 317 316 316 317 317 319 319 318 314 308 305 305 301 302 305 306 305 305 305 302 300 298 298 299 299 298 298 297 298 297 296 296 296 296 296 296 297 297 297 297 297 297 297 298 299 299 299
315 316 315 310 319 322 322 320 316 317 320 317 318 315 316 310 307 306 305 301 301 302 303 303 304 304 303 300 298 298 298 299 298 296 297 298 297 297 296 296 296 296 296 296 296 297 297 297 297 297 297 298 298 299
317 318 316 320 318 319 320 320 319 319 320 319 318 314 311 308 308 309 307 304 303 302 302 302 303 300 296 297 295 297 298 298 298 297 296 296 296 296 295 294 294 297 296 296 297 297 297 297 297 297 298 298 298 298
317 321 317 314 316 316 318 318 317 317 318 318 315 315 310 309 310 308 302 302 301 303 304 304 304 298 296 296 297 297 298 298 298 297 297 298 298 298 298 297 297 297 298 298 298 298 297 298 298 298 298 299 298 298
320 318 319 316 317 315 317 315 314 313 311 309 311 311 310 308 307 302 302 305 304 304 305 306 301 297 297 297 296 297 296 296 297 297 298 298 297 297 297 297 298 298 298 298 298 298 298 298 298 298 298 298 298 298
320 317 317 318 315 313 312 311 309 306 304 307 309 308 305 302 303 303 305 306 306 305 299 296 296 297 297 297 297 297 296 296 296 293 294 293 295 297 297 297 297 297 298 298 298 298 298 298 298 298 298 298 298 298
319 315 316 315 314 311 308 306 305 302 302 302 302 301 301 303 306 306 306 307 304 298 297 297 297 297 297 298 297 297 296 296 296 296 294 294 296 297 297 297 298 298 297 297 297 298 298 298 297 297 297 297 297 297
314 315 315 313 310 307 305 304 304 304 302 302 302 302 302 302 306 307 304 300 299 299 298 297 296 298 298 297 296 296 296 296 296 296 296 297 297 297 297 297 298 298 298 298 297 297 297 297 297 297 297 297 297 297
316 316 314 314 312 308 308 307 304 304 304 303 303 302 302 302 303 303 302 299 299 299 298 298 298 298 298 298 297 297 297 297 298 298 298 298 298 298 298 298 298 298 298 298 298 298 298 298 298 298 298 297 297 297
316 316 314 314 314 313 311 309 310 308 307 306 305 303 304 302 302 302 302 300 300 299 299 299 299 299 299 299 298 298 298 298 298 298 298 298 298 298 298 298 297 297 297 298 298 298 298 298 298 298 298 298 297 297
Wind_Speed
23 18 10 11 14 16 19 21 13 7 4 2 2 2 0 1 4 4 2 5 2 1 4 5 4 4 2 1 1 4 4 2 2 2 2 2 3 2 2 3 2 5 7 5 3 4 2 20 8 7 9 7 5 9
17 13 9 10 13 15 18 20 11 5 3 1 1 3 2 3 5 5 1 2 7 2 4 7 20 25 19 17 1 2 3 2 2 1 3 3 2 2 3 2 4 4 2 2 3 4 1 4 4 10 13 5 6 6
15 9 8 10 12 15 18 18 10 5 3 3 2 3 4 5 5 4 2 3 2 1 4 3 6 3 9 21 21 2 3 2 3 5 3 2 3 3 2 4 3 3 6 3 2 1 7 7 14 17 17 16 10 6
12 7 7 9 12 15 18 18 9 4 4 4 4 5 5 6 8 7 1 2 2 1 1 5 8 10 8 8 16 26 18 12 3 2 1 0 2 5 5 3 5 4 5 6 3 5 8 9 15 18 19 19 20 9
8 7 7 10 12 16 17 17 7 5 4 6 5 6 6 6 7 9 7 5 4 1 2 4 18 6 11 15 14 20 21 6 1 3 2 2 2 3 3 3 6 7 4 3 3 3 5 6 13 17 17 19 20 10
7 7 8 10 13 16 18 16 6 5 6 7 7 7 7 6 6 4 2 4 6 4 1 3 5 6 16 18 11 9 4 2 2 2 2 3 3 2 3 3 8 10 8 5 4 7 6 8 7 13 14 17 17 15
9 7 9 11 14 18 19 14 4 5 7 8 8 7 7 7 7 3 2 2 8 4 1 4 5 4 7 4 6 4 6 3 3 2 2 3 4 4 2 3 12 9 6 4 8 8 3 7 6 12 12 16 18 15
7 7 9 12 15 19 20 6 3 6 8 9 8 8 7 5 4 5 4 6 9 2 1 2 4 4 5 3 4 4 4 4 5 2 3 3 2 3 3 6 9 7 7 6 11 7 4 7 7 8 13 15 13 12
6 7 10 13 16 19 15 2 6 8 9 10 10 9 5 3 3 1 5 6 7 3 2 1 2 3 4 2 1 4 3 4 3 3 2 2 3 4 2 5 8 7 4 7 8 5 7 7 8 9 11 12 11 13
6 8 11 15 18 19 4 6 9 11 13 13 9 4 2 3 5 8 4 1 1 1 1 2 1 2 2 2 2 1 3 1 2 2 2 3 3 2 6 7 6 8 6 6 7 11 9 11 10 10 10 9 8 9
7 9 13 16 19 13 5 12 14 16 14 5 3 2 4 9 4 2 2 2 2 2 3 3 3 1 2 2 0 1 2 1 2 2 2 2 3 4 7 5 6 8 11 9 10 9 10 8 8 8 8 12 14 15
6 10 14 17 18 2 11 16 19 10 6 5 4 4 4 2 2 3 3 2 3 3 3 3 3 3 2 1 2 2 2 1 1 2 3 2 3 4 5 5 5 9 11 11 12 11 14 12 14 12 12 13 16 17
7 11 15 17 5 4 14 18 22 5 5 3 2 2 2 2 1 3 2 2 2 3 4 2 1 3 2 3 2 2 1 2 0 2 1 2 3 2 3 4 5 9 12 11 13 15 15 15 16 16 15 18 16 16
9 12 15 9 1 5 13 20 17 3 2 1 2 2 2 3 3 2 4 3 2 2 5 3 2 2 2 1 2 3 1 2 2 0 1 3 3 3 3 2 3 4 7 7 9 12 12 13 14 16 16 15 15 16
10 14 4 4 2 8 12 19 18 6 1 2 1 2 4 3 2 2 1 1 1 4 5 2 2 2 1 3 2 3 2 1 3 3 3 3 3 2 1 3 2 3 2 2 7 10 13 14 12 14 17 18 16 15
11 4 5 2 6 15 15 16 13 4 3 2 2 2 2 2 3 2 2 2 2 3 2 2 2 2 1 3 3 3 5 3 3 2 3 2 2 4 2 3 4 6 3 2 3 6 9 12 13 13 16 17 18 18
4 3 1 1 12 16 18 7 5 4 3 2 3 3 2 2 2 2 2 2 3 3 1 2 1 2 3 1 3 2 3 2 3 3 3 4 3 4 6 6 7 4 7 4 2 4 5 5 7 10 11 15 18 19
3 3 3 6 21 21 4 5 4 4 6 4 3 3 2 2 2 2 3 2 2 2 2 0 3 4 3 2 1 2 2 2 3 3 2 1 4 5 4 8 7 3 7 1 7 8 6 7 6 5 8 10 11 15
4 6 9 13 8 4 3 6 5 3 6 3 1 1 1 1 1 3 2 1 2 1 3 3 5 2 2 2 3 1 1 2 3 1 2 4 9 14 19 22 21 15 6 7 11 14 16 14 11 10 9 6 8 10
8 11 18 16 11 3 3 3 7 3 3 4 2 2 2 2 1 2 3 3 3 3 5 4 1 2 4 3 3 3 3 4 3 3 4 6 12 24 22 22 19 19 19 16 13 14 17 20 20 19 6 8 9 8
4 7 15 16 5 7 3 3 2 3 2 2 2 3 1 1 2 2 3 1 4 2 2 1 2 2 5 7 6 7 7 7 3 4 4 3 8 19 18 16 16 16 15 13 13 15 17 16 16 13 18 18 12 8
5 14 6 9 4 7 3 4 3 2 3 2 3 1 1 0 0 2 3 6 4 3 2 3 3 2 3 4 6 10 12 14 12 15 17 16 5 8 10 10 13 11 11 12 12 12 16 16 15 13 15 15 17 9
11 7 3 6 3 1 3 6 5 4 3 3 1 2 3 3 5 6 4 5 3 8 5 7 6 11 11 13 13 12 11 14 14 15 15 14 11 11 10 11 11 11 10 11 12 17 20 19 17 17 18 21 17 12
3 3 2 1 3 2 2 3 1 2 2 1 2 3 4 3 3 3 3 4 5 9 17 14 13 6 10 13 6 9 12 17 17 15 12 13 9 5 7 7 8 9 9 10 13 16 18 18 18 16 16 18 20 14
3 5 4 6 3 2 2 2 3 2 2 3 3 3 2 3 3 3 2 2 3 9 8 1 7 10 3 2 5 8 5 11 14 9 6 7 8 5 6 8 8 8 8 10 12 12 11 12 13 14 15 14 12 9
5 3 4 3 3 3 3 2 2 3 2 2 4 2 3 3 4 3 2 3 3 2 3 4 4 4 4 9 7 8 6 8 11 8 4 3 3 4 3 5 7 10 7 8 10 10 9 10 12 14 14 14 12 11
3 4 2 3 1 1 2 2 2 3 4 3 2 3 3 4 3 2 1 5 4 9 7 12 8 10 16 16 17 16 14 8 6 8 13 13 12 9 7 7 9 11 8 9 11 11 9 13 12 13 13 14 13 13
3 2 3 2 3 2 3 4 4 4 4 4 3 4 2 2 3 3 5 4 7 7 8 5 10 18 19 16 15 14 13 9 12 12 13 12 10 11 11 9 12 12 10 10 12 11 10 11 13 14 14 14 15 12
4 2 3 5 4 5 5 4 3 2 2 0 3 3 2 1 3 3 1 3 8 5 17 23 22 20 18 15 14 13 11 10 11 6 5 2 7 12 12 12 14 12 8 10 9 10 9 10 11 11 12 12 12 11
3 2 4 5 5 5 4 3 2 4 5 3 4 3 3 2 1 1 4 8 6 20 19 24 23 19 15 14 10 9 9 8 7 6 3 0 4 9 12 11 13 13 10 10 10 11 12 11 12 14 15 15 14 14
3 4 5 5 4 3 1 1 7 11 7 5 6 4 2 1 2 5 6 18 17 20 22 19 17 16 15 11 9 8 5 5 4 4 3 3 5 8 10 10 12 11 11 11 10 11 12 14 16 17 18 18 17 15
3 4 4 3 2 2 1 3 3 3 3 3 3 2 2 3 2 2 12 15 17 17 18 18 18 16 13 9 8 5 4 4 4 3 2 4 6 8 9 9 8 9 11 11 12 14 15 17 18 19 19 16 15 16
4 5 5 4 3 3 2 3 3 2 1 1 1 2 2 3 2 4 9 16 13 17 18 15 13 11 10 8 6 4 1 1 3 6 8 10 13 15 17 18 16 16 16 16 16 16 17 18 19 21 17 13 12 11
Wind_Direction
318 315 285 301 315 329 338 340 346 334 327 346 20 44 332 139 162 149 84 204 186 235 270 199 224 218 270 182 228 280 353 276 241 275 273 198 232 271 263 37 32 139 159 183 186 76 359 349 348 55 321 304 311 356
310 306 280 301 315 330 338 340 344 322 296 289 266 223 203 159 155 149 143 236 230 216 267 270 268 264 248 235 150 259 242 284 120 303 248 279 281 280 296 94 24 73 333 112 83 146 344 9 61 355 355 301 336 17
310 282 281 302 319 330 336 341 339 299 261 233 213 167 168 166 161 167 209 197 145 269 299 319 246 313 263 241 231 249 266 215 213 158 210 234 252 251 64 57 82 40 26 68 125 27 333 42 11 6 3 0 337 347
308 257 282 305 319 329 334 338 332 266 228 205 180 165 165 170 175 184 182 285 233 301 292 282 320 304 300 280 241 222 248 268 91 194 222 330 293 337 46 77 66 359 349 334 46 345 335 34 13 354 352 5 2 337
272 245 286 307 320 325 332 334 327 254 209 198 180 166 164 172 180 202 244 275 233 48 293 281 312 289 316 317 298 242 235 261 139 358 338 342 6 8 4 42 35 354 1 11 53 334 317 289 338 353 360 359 355 360
241 249 291 309 318 325 330 331 312 234 200 193 179 171 168 166 170 185 273 243 208 223 303 323 296 286 315 340 348 346 6 128 78 101 3 353 24 60 58 66 349 346 352 349 350 315 278 299 319 358 358 352 354 12
231 256 295 309 319 326 330 323 283 208 192 186 180 169 169 173 178 206 217 297 187 212 256 308 320 277 313 356 349 351 15 40 95 137 38 18 23 34 43 49 328 349 344 2 350 339 347 10 329 336 357 354 355 1
231 268 296 311 320 327 328 309 230 184 174 175 167 159 164 183 246 276 236 172 178 265 260 302 279 338 16 5 354 359 5 19 17 74 348 33 32 52 49 344 349 351 340 7 360 353 287 288 318 352 359 10 2 3
238 278 300 312 321 327 327 266 170 166 163 160 150 148 148 202 214 203 156 170 199 259 282 254 167 280 357 39 352 357 33 48 326 32 14 27 9 46 298 338 337 334 356 332 332 345 2 1 1 8 8 18 3 353
254 288 305 316 322 326 319 167 158 158 155 148 142 159 213 202 153 139 139 153 213 221 197 236 166 276 50 22 10 40 17 60 56 319 347 41 7 277 264 282 305 324 329 340 352 11 8 12 5 6 9 11 1 357
264 297 312 319 324 328 173 165 160 151 149 173 170 214 142 142 155 172 206 206 162 236 210 243 185 211 295 84 255 37 155 358 82 298 79 27 332 301 342 346 331 6 21 26 13 14 8 3 358 3 360 6 3 10
282 308 317 325 327 262 170 170 166 166 166 160 148 124 141 169 190 209 201 183 199 236 185 183 219 193 282 213 113 353 92 74 136 164 96 115 261 289 341 355 20 27 26 21 19 26 20 10 17 11 20 12 8 1
302 317 323 330 332 154 170 175 170 142 138 154 199 179 158 151 255 205 236 279 249 186 171 145 193 170 360 41 65 79 87 62 49 51 90 198 260 303 345 341 61 36 27 18 13 22 22 17 24 30 23 20 18 9
314 319 320 318 38 158 166 176 167 190 39 269 223 306 238 176 249 236 206 247 256 120 139 127 133 153 178 132 62 91 0 45 56 323 109 254 242 280 322 333 95 53 43 30 20 23 19 10 5 18 26 22 23 21
325 324 329 126 175 156 161 174 179 178 259 245 92 238 230 283 217 232 67 3 349 140 121 94 97 108 46 104 74 109 76 162 205 198 165 238 237 259 323 328 89 108 118 63 36 25 16 19 17 18 23 22 24 23
343 96 79 45 153 145 150 159 175 207 253 224 220 259 295 52 307 325 315 300 125 113 117 128 174 176 151 145 111 131 146 213 236 184 177 228 297 288 270 268 287 216 201 188 91 67 42 26 9 14 42 42 39 28
35 80 83 335 158 152 149 136 163 215 264 218 250 213 194 240 213 239 205 238 151 153 210 230 291 131 132 104 76 132 163 198 163 141 130 172 208 263 293 308 319 262 216 234 304 348 17 13 17 29 27 39 49 50
80 143 137 128 134 146 207 199 230 221 234 226 204 201 219 194 213 265 247 192 142 143 157 135 123 54 41 65 30 339 39 51 52 99 105 333 305 315 359 341 359 297 207 336 328 336 330 316 326 335 347 358 10 26
263 210 179 163 153 170 210 204 205 236 223 167 142 185 222 236 238 272 256 166 127 84 95 42 62 78 92 81 104 94 83 118 124 85 12 7 60 79 82 73 73 75 77 16 22 38 32 20 347 312 292 313 334 354
288 215 196 198 194 187 252 230 195 220 199 210 108 144 179 183 268 342 25 53 64 63 40 46 119 196 140 168 178 146 156 145 108 67 29 35 76 88 83 82 76 74 71 66 56 36 28 27 23 19 343 290 294 313
218 163 180 196 206 223 277 284 251 211 142 154 149 127 221 24 81 37 39 356 62 76 84 93 105 80 103 107 108 110 122 127 118 129 163 104 84 101 99 93 87 78 68 47 29 20 24 15 10 27 41 34 8 303
163 164 129 180 217 192 256 346 306 346 42 8 30 12 204 196 141 66 68 35 34 11 29 135 161 136 112 75 61 98 116 94 88 110 121 117 96 84 81 83 77 63 52 39 29 17 11 12 14 12 18 19 17 2
158 175 189 172 185 122 264 4 59 5 112 240 69 28 32 39 15 6 63 11 340 328 352 39 49 89 89 85 91 120 78 83 94 113 116 110 103 101 93 78 64 56 38 25 29 28 23 25 23 35 33 24 25 46
175 220 246 177 102 58 23 39 33 13 36 354 52 64 45 49 60 70 52 351 322 40 73 27 26 28 48 73 70 85 105 107 119 124 128 123 109 80 81 72 54 44 34 36 29 24 27 29 30 27 22 29 26 39
62 340 45 355 10 77 67 32 2 332 39 35 86 67 63 81 65 66 67 350 18 66 77 115 313 328 316 357 38 58 120 128 129 121 138 138 118 91 54 37 23 13 18 17 10 10 13 19 16 8 4 10 16 18
66 2 67 25 14 47 343 55 3 321 340 74 74 97 72 77 70 72 118 192 227 247 253 285 307 327 33 94 89 64 84 128 134 116 121 120 85 82 50 0 341 355 359 0 3 352 350 359 0 355 348 347 347 355
75 64 27 28 29 304 343 9 75 50 8 50 97 78 72 70 79 135 175 215 222 247 273 322 341 152 122 109 94 81 74 85 93 107 99 86 71 59 43 26 13 2 5 358 356 0 354 359 357 354 347 348 345 339
88 74 91 318 49 27 35 37 33 25 360 350 48 53 68 75 144 218 209 247 254 289 315 331 141 129 115 102 92 78 67 73 93 115 97 79 57 35 24 18 7 6 9 4 348 331 344 350 346 343 341 338 339 349
53 0 64 29 44 41 41 35 5 333 316 325 94 104 130 199 186 200 220 312 327 345 119 119 128 123 110 100 82 57 43 48 80 74 75 20 10 15 28 20 11 16 16 14 15 22 12 359 2 7 14 13 11 2
20 9 87 43 51 43 347 24 8 321 22 90 106 92 55 26 166 271 335 352 65 136 140 140 140 138 125 105 94 78 71 70 79 97 128 274 326 357 12 15 17 15 16 20 8 7 9 13 15 16 8 2 359 351
94 57 59 47 67 25 111 141 65 62 46 49 42 83 114 266 4 26 64 128 133 143 148 150 155 145 141 139 119 100 77 75 73 62 43 0 350 351 4 15 16 18 14 13 16 12 5 359 355 353 352 352 358 357
64 95 123 102 107 217 302 41 44 57 23 37 6 33 25 46 23 330 157 144 137 137 146 147 158 175 175 141 131 129 96 84 69 51 15 342 329 325 326 335 348 351 353 349 341 341 341 342 344 347 349 356 5 8
80 81 91 109 120 159 189 134 146 124 105 141 248 210 212 158 198 227 171 181 160 161 162 160 150 143 146 148 152 159 163 328 313 313 315 312 310 313 316 315 314 318 319 319 321 325 330 334 338 341 341 322 325 341